Location: Biharia
(46.4333°N, 22.8000°E)
Time: 01:51:54
(UTC+00:00)

CZ-2C R/B - Pass Details

Date: 16 October 2021
Orbit: 784 x 871 km, 98.2° (Epoch: 02 December)

Event Time Altitude Azimuth Distance (km) Brightness Sun altitude
Rises 16:06:41 0° 20° (NNE) 3,471 5.6 -5.3°
Reaches altitude 10° 16:09:16 10° 28° (NNE) 2,528 4.9 -5.7°
Maximum altitude 16:14:30 38° 96° (E) 1,294 3.2 -6.6°
Drops below altitude 10° 16:19:38 10° 164° (SSE) 2,487 5.0 -7.5°
Sets 16:22:09 0° 172° (S) 3,408 5.8 -8.0°
